Location: Armstrong Village
(14.3346°N, 120.9854°E)
Time: 01:50:17
(UTC+00:00)

Cosmos 1741 Rocket - Pass Details

Date: 13 January 2026
Orbit: 758 x 777 km, 74.0° (Epoch: 15 February)

Event Time Altitude Azimuth Distance (km) Brightness Sun altitude
Rises 11:33:42 0° 342° (NNW) 3,209 7.2 -25.6°
Reaches altitude 10° 11:36:04 10° 340° (NNW) 2,282 6.5 -26.1°
Maximum altitude 11:41:12 67° 258° (WSW) 820 4.2 -27.3°
Drops below altitude 10° 11:46:19 10° 176° (S) 2,279 6.6 -28.5°
Sets 11:48:42 0° 173° (S) 3,204 7.3 -29.0°
